[[{"header":{"parameterUnit":"m.s-1","parameterCategory":1,"la1":30.2992,"la2":30.254,"lo1":-89.0895,"lo2":-89.0443,"dy":0.0025,"dx":0.0025,"nx":19,"ny":19,"refTime":"2026-04-03T09:00:00:Z","depth":0,"parameterNumber":2,"parameterNumberName":"U-component_of_WINDS"},"data":[0,0,0,-3.8312,-3.8316,-3.8508,-3.8509,-3.8748,-3.875,0,0,0,0,0,0,0,0,0,0,0,-3.825,-3.8251,-3.8312,-3.8316,-3.8508,-3.8509,-3.8748,-3.875,0,0,0,0,0,0,0,0,0,0,0,-3.8249,-3.8251,-3.8253,-3.8317,-3.8508,-3.8509,-3.8747,-3.8605,0,0,0,0,0,0,0,0,0,0,-3.842,-3.8356,-3.825,-3.8253,-3.8318,-3.8508,-3.8509,-3.8598,-3.8614,-3.8658,0,-3.8694,0,-3.8726,-3.8766,-3.8766,0,0,0,-3.8321,-3.8343,-3.84,-3.8253,-3.832,-3.8508,-3.8423,-3.8607,-3.8625,-3.8678,-3.8698,-3.8707,-3.873,-3.8767,-3.8768,-3.9006,-3.9007,0,0,-3.831,-3.8282,-3.8388,-3.8411,-3.838,-3.8417,-3.8429,-3.8618,-3.8637,-3.8699,-3.8713,-3.8734,-3.8769,-3.877,-3.9005,-3.9006,0,0,0,-3.8277,-3.8274,-3.8326,-3.8401,-3.8436,-3.8422,-3.8436,-3.8629,-3.8648,-3.8715,-3.8737,-3.877,-3.8773,-3.9004,-3.9005,-3.9021,0,0,0,-3.827,-3.8255,-3.8321,-3.8306,-3.8433,-3.8535,-3.8443,-3.8635,-3.8658,-3.8736,-3.877,-3.8775,-3.9003,-3.9005,-3.9019,-3.9033,0,0,0,-3.8239,-3.8251,-3.8277,-3.8304,-3.8386,-3.8532,-3.8563,-3.8641,-3.8671,-3.8767,-3.8776,-3.9002,-3.9004,-3.9017,-3.9029,-3.9086,0,0,0,-3.8197,-3.8289,-3.8277,-3.8388,-3.8384,-3.8541,-3.8562,-3.8681,-3.8765,-3.8771,-3.9003,-3.9005,-3.9016,-3.9027,-3.9084,-3.9127,-3.9143,0,0,-3.8297,-3.83,-3.8367,-3.8362,-3.8514,-3.8514,-3.867,-3.8774,-3.881,-3.8939,-3.8945,-3.902,-3.9029,-3.9086,-3.9247,-3.9259,0,0,0,-3.8389,-3.8437,-3.8484,-3.8562,-3.8645,-3.8717,-3.8801,-3.884,-3.895,-3.887,-3.9058,-3.9064,-3.9099,-3.9121,-3.9131,-3.9162,-3.9015,-3.9015,-3.9014,-3.8487,-3.8528,-3.8643,-3.8707,-3.8784,-3.8871,-3.8937,-3.9004,-3.9024,-3.9068,-3.9105,-3.9198,-3.9223,-3.9231,-3.9262,-3.9133,-3.9134,-3.9134,-3.9134,-3.8635,-3.8708,-3.8733,-3.8853,-3.8896,-3.8998,-3.9086,-3.9097,-3.9198,-3.9173,-3.9205,-3.9171,-3.9243,-3.9273,-3.9135,-3.9135,-3.9135,-3.9135,-3.9135,-3.8701,-3.8744,-3.879,-3.8909,-3.8997,-3.9061,-3.9157,-3.9194,-3.923,-3.9262,-3.9306,-3.9305,-3.9308,-3.9281,-3.9281,-3.9282,-3.9282,-3.9282,-3.9282,-3.875,-3.8803,-3.8879,-3.8975,-3.9031,-3.911,-3.92,-3.9257,-3.933,-3.9349,-3.935,-3.9364,-3.9243,-3.921,-3.9287,-3.9287,-3.9286,-3.9285,-3.9285,-3.8881,-3.8858,-3.8974,-3.9031,-3.9148,-3.9233,-3.928,-3.9393,-3.9446,-3.9492,-3.9502,-3.9407,-3.9412,-3.9404,-3.9377,-3.9493,-3.9493,-3.9493,-3.9493,-3.8935,-3.8942,-3.907,-3.9158,-3.9249,-3.9304,-3.9436,-3.9508,-3.9579,-3.9615,-3.9605,-3.9573,-3.9564,-3.9575,-3.9563,-3.9538,-3.9693,-3.9693,-3.9693,-3.9017,-3.9035,-3.9139,-3.9207,-3.9303,-3.9384,-3.9509,-3.961,-3.9686,-3.9702,-3.9644,-3.9635,-3.9585,-3.9567,-3.9577,-3.9558,-3.9514,0,0]},{"header":{"parameterUnit":"m.s-1","parameterCategory":1,"la1":30.2992,"la2":30.254,"lo1":-89.0895,"lo2":-89.0443,"dy":0.0025,"dx":0.0025,"nx":19,"ny":19,"refTime":"2026-04-03T09:00:00:Z","depth":0,"parameterNumber":3,"parameterNumberName":"V-component_of_WINDS"},"data":[0,0,0,3.6805,3.6808,3.6954,3.6955,3.7129,3.7131,0,0,0,0,0,0,0,0,0,0,0,3.6756,3.6757,3.6805,3.6808,3.6954,3.6955,3.7129,3.7131,0,0,0,0,0,0,0,0,0,0,0,3.6755,3.6756,3.6758,3.6809,3.6954,3.6955,3.7129,3.7023,0,0,0,0,0,0,0,0,0,0,3.6883,3.6831,3.6756,3.6758,3.681,3.6954,3.6955,3.7018,3.7029,3.7058,0,3.7084,0,3.711,3.7142,3.7142,0,0,0,3.6812,3.6821,3.6867,3.6758,3.6811,3.6954,3.689,3.7024,3.7037,3.7074,3.7087,3.7093,3.7113,3.7143,3.7144,3.7305,3.7305,0,0,3.6804,3.6778,3.6858,3.6875,3.6853,3.6885,3.6894,3.7032,3.7044,3.7087,3.7098,3.7116,3.7144,3.7145,3.7304,3.7305,0,0,0,3.6778,3.6772,3.6814,3.6868,3.6895,3.6889,3.69,3.7038,3.7054,3.71,3.7118,3.7145,3.7147,3.7304,3.7305,3.7309,0,0,0,3.6774,3.6757,3.6811,3.6796,3.6892,3.6968,3.6902,3.7044,3.7061,3.7117,3.7145,3.7149,3.7303,3.7304,3.7307,3.7314,0,0,0,3.6748,3.6754,3.6773,3.6794,3.6856,3.6967,3.6991,3.7048,3.7072,3.7143,3.7149,3.7303,3.7304,3.7306,3.7312,3.7351,0,0,0,3.6712,3.6772,3.6773,3.6847,3.6855,3.6969,3.6991,3.7076,3.7137,3.7146,3.7303,3.7304,3.7306,3.7311,3.7349,3.7379,3.7388,0,0,3.6773,3.6779,3.6825,3.683,3.6937,3.6949,3.7057,3.7136,3.7165,3.7256,3.7261,3.7308,3.7312,3.735,3.7451,3.7458,0,0,0,3.6835,3.6868,3.6902,3.6961,3.7025,3.7081,3.7147,3.7177,3.7256,3.7207,3.7332,3.7336,3.7359,3.7374,3.7381,3.7403,3.731,3.731,3.731,3.6882,3.692,3.6999,3.7055,3.7111,3.7181,3.723,3.7282,3.73,3.733,3.7357,3.7414,3.743,3.7436,3.7458,3.7375,3.7375,3.7375,3.7375,3.6975,3.7028,3.7056,3.7142,3.7182,3.7254,3.7324,3.7336,3.7409,3.7395,3.7418,3.74,3.7443,3.7465,3.7376,3.7376,3.7376,3.7376,3.7375,3.701,3.7043,3.708,3.7171,3.7237,3.7291,3.7361,3.7393,3.7424,3.7446,3.748,3.748,3.7484,3.746,3.746,3.746,3.7461,3.7461,3.7461,3.7032,3.7075,3.7131,3.7207,3.7251,3.7312,3.7385,3.7428,3.7484,3.7502,3.7502,3.7519,3.744,3.742,3.7464,3.7463,3.7463,3.7463,3.7463,3.7113,3.7101,3.7188,3.7232,3.7325,3.7389,3.7431,3.7517,3.7557,3.7591,3.7605,3.7541,3.7548,3.7543,3.7526,3.7596,3.7596,3.7596,3.7596,3.7144,3.7151,3.725,3.7318,3.7389,3.7437,3.7534,3.7592,3.7649,3.7677,3.7672,3.7653,3.7646,3.7657,3.765,3.7635,3.773,3.773,3.7731,3.7196,3.7213,3.729,3.7349,3.7425,3.7489,3.7583,3.766,3.7722,3.7737,3.7699,3.7694,3.7664,3.7652,3.7664,3.7652,3.7625,0,0]}]]